Wind_Speed
21 21 21 21 20 19 20 20 19 19 19 20 19 18 18 19 19 19 18 17 17 16 16 16 16 16 15 15 15 15 15 15 15 14 14 14 15 15 15 15 15 16 15 15
21 21 21 21 21 22 21 21 20 20 20 21 20 19 19 20 20 19 18 18 17 17 17 16 16 16 15 15 16 16 16 16 16 16 16 15 16 16 15 15 15 16 16 16
21 20 21 21 21 21 21 21 21 20 20 21 21 20 19 20 21 21 20 19 19 18 17 17 17 17 17 17 17 17 17 17 17 17 17 17 17 17 17 17 17 17 17 17
22 22 21 21 21 21 21 21 21 21 21 20 21 20 20 20 20 20 20 20 19 18 17 17 18 18 18 18 19 19 18 18 19 19 19 18 18 18 18 18 18 18 17 16
23 23 22 21 21 21 21 21 21 20 21 20 21 21 19 20 20 20 20 20 20 19 19 18 18 19 19 20 20 20 19 20 20 19 19 19 19 18 18 19 19 18 16 16
23 22 21 21 21 20 20 20 20 20 21 21 21 21 19 20 20 19 20 20 20 20 20 19 19 20 20 20 20 20 20 20 20 20 20 19 20 20 20 19 18 17 17 16
22 21 21 20 20 21 20 19 19 19 21 21 21 21 20 19 19 19 20 20 20 20 20 20 20 20 20 20 20 20 19 20 20 20 20 20 20 21 20 19 18 17 16 16
22 22 21 21 20 21 21 20 19 19 19 19 20 21 19 19 18 18 19 19 19 19 19 20 20 20 20 20 20 20 20 20 21 21 21 21 20 20 19 18 18 17 17 16
21 21 21 21 21 20 20 20 19 20 20 18 19 20 20 19 19 18 19 19 19 19 20 19 19 20 20 20 20 21 21 20 21 21 21 21 21 21 19 18 19 18 17 17
22 22 21 22 21 20 20 20 20 20 21 21 20 20 19 19 19 19 19 19 19 20 20 20 20 20 21 20 21 22 21 21 21 21 21 21 21 22 20 19 19 18 17 17
23 23 23 22 22 20 20 21 21 21 22 22 20 20 19 19 20 20 20 21 20 20 21 21 20 21 21 21 22 23 22 21 20 20 21 21 21 21 21 20 19 18 18 17
23 24 23 22 21 21 22 23 22 22 22 22 21 20 20 20 20 20 21 21 21 22 22 22 22 22 22 22 22 23 23 22 22 22 21 21 21 21 21 20 19 19 18 18
24 25 23 21 22 22 23 24 23 23 24 23 22 21 20 20 19 19 19 20 21 22 23 23 23 23 22 22 22 23 23 22 22 22 21 20 19 20 20 20 20 19 19 19
25 25 24 22 22 23 24 25 23 23 24 23 22 21 20 21 21 21 20 20 21 21 22 23 23 22 23 22 22 22 21 21 21 21 22 21 20 19 19 19 20 20 20 20
25 26 26 25 25 25 25 25 25 25 24 23 23 23 22 23 23 22 22 21 21 21 21 20 20 21 21 20 20 21 22 21 20 20 20 20 19 19 19 20 19 19 20 20
25 26 26 26 26 26 26 26 26 26 25 25 24 24 23 23 22 22 23 22 21 21 21 21 20 20 20 19 20 21 20 20 20 20 20 20 20 20 20 20 20 20 20 20
26 26 25 25 26 27 28 27 27 27 26 26 26 25 24 23 22 22 22 21 21 21 21 21 20 20 20 20 20 20 20 20 20 20 20 20 21 20 20 20 19 19 20 20
25 26 26 25 25 27 27 26 26 26 26 25 25 24 24 23 22 22 22 21 21 21 21 22 22 21 21 20 20 20 20 20 20 20 20 20 21 21 21 21 20 20 20 20
25 26 26 25 25 26 26 26 25 24 24 24 24 24 24 23 22 22 21 21 21 21 22 22 23 22 21 21 21 21 21 21 21 21 20 20 20 21 21 20 20 20 21 21
24 25 26 26 26 25 25 25 24 23 23 23 23 23 23 22 22 22 22 21 21 21 21 21 22 22 22 21 21 21 21 21 20 21 21 21 20 20 20 20 21 20 21 21
23 24 25 26 26 26 24 23 23 23 22 22 22 21 21 21 21 21 22 21 22 22 22 22 21 21 20 20 21 21 21 20 20 21 21 21 20 19 19 20 20 21 21 21
22 22 22 23 24 25 24 22 23 23 22 22 22 21 21 22 21 22 22 21 21 21 21 21 20 20 20 20 19 19 19 19 19 19 19 19 19 19 19 19 20 20 20 20
21 22 23 23 23 23 23 23 23 23 23 23 22 22 22 21 21 22 22 22 22 23 22 21 19 19 20 20 19 19 18 18 17 17 17 18 18 18 19 20 20 21 21 21
21 22 22 23 23 23 22 23 24 23 23 22 21 22 22 22 21 21 21 21 21 22 21 20 20 19 19 19 18 18 19 19 19 18 18 18 18 18 19 20 21 21 22 22
20 20 21 22 22 23 23 23 23 23 21 21 21 20 21 21 21 21 21 20 21 21 20 19 19 19 19 19 19 19 19 19 20 20 19 19 19 19 19 20 21 22 22 22
18 19 20 20 21 22 22 22 22 21 21 21 21 20 20 20 20 20 20 20 20 20 20 19 19 19 19 19 19 20 19 20 20 20 19 19 19 20 20 20 20 21 22 22
Wind_Direction
249 248 247 250 251 251 253 256 260 262 263 263 261 260 261 261 262 261 260 260 263 266 269 266 267 269 272 275 277 275 278 278 277 276 278 278 273 272 266 264 265 264 267 266
249 250 250 251 252 252 254 255 258 261 261 262 262 261 262 261 259 258 260 261 262 266 268 267 268 270 272 275 277 278 279 278 276 275 276 277 274 272 271 267 266 271 270 267
250 251 251 252 253 254 255 254 255 257 259 261 263 264 262 260 258 257 259 262 264 266 264 265 266 268 270 274 277 278 277 277 276 273 273 276 274 272 272 270 268 272 270 266
248 249 252 254 253 253 253 252 253 254 256 259 262 263 263 259 257 258 259 260 262 262 262 264 267 268 270 273 275 276 275 275 275 273 273 273 274 271 270 271 270 270 270 268
248 250 252 252 252 253 251 251 252 254 256 256 260 261 262 261 257 257 259 259 258 261 261 264 267 269 270 272 274 273 273 272 272 272 272 271 271 271 271 272 272 272 271 267
248 249 250 250 251 250 248 250 252 253 256 257 258 259 259 259 257 257 258 257 258 259 261 265 266 268 270 271 273 272 272 271 271 272 273 273 270 269 271 272 269 267 269 267
249 249 249 248 249 248 246 247 250 252 254 256 258 258 258 258 257 256 257 257 258 259 262 264 265 268 271 270 270 272 271 269 270 270 271 271 271 269 269 269 265 265 269 270
247 247 248 247 247 249 247 246 245 248 253 258 260 260 263 261 261 259 258 258 259 259 261 263 265 267 270 269 267 270 271 270 271 270 270 271 270 268 267 266 265 266 269 270
246 247 248 248 247 248 248 244 242 248 252 255 259 264 264 261 259 260 261 261 260 261 262 262 265 265 268 266 266 269 269 270 272 271 270 271 271 268 268 267 265 266 267 268
246 247 247 248 247 247 246 245 247 245 249 254 259 263 265 262 258 257 258 257 257 261 263 263 264 266 266 267 266 267 266 268 271 271 272 273 272 267 265 267 267 266 267 268
248 249 248 247 248 248 245 247 251 250 250 255 259 261 262 260 260 258 257 255 256 258 261 262 265 267 266 266 267 267 265 266 268 270 272 270 268 268 267 266 264 264 266 268
249 249 248 249 251 248 247 248 250 249 253 255 258 259 259 260 259 259 258 256 257 259 262 264 265 265 267 266 266 267 265 265 267 268 270 272 270 266 265 264 262 263 266 268
248 247 248 250 251 252 247 248 250 251 251 253 255 257 259 260 257 257 258 259 260 261 262 262 262 263 265 264 265 265 265 265 266 267 268 271 267 265 263 262 261 262 265 267
247 247 246 246 248 251 250 250 254 252 253 255 255 255 257 258 259 261 261 264 263 264 265 263 263 265 267 265 264 266 267 266 266 267 268 268 264 261 260 261 261 262 265 269
249 247 247 247 247 248 251 250 253 253 253 255 257 256 259 260 263 265 265 267 266 267 267 266 265 266 267 266 266 267 268 266 266 267 265 264 260 259 261 263 263 263 265 268
250 247 247 249 249 250 252 251 252 252 253 254 255 257 260 263 265 265 265 264 263 263 263 263 264 264 264 266 265 265 265 266 266 267 266 262 260 261 262 262 262 263 264 265
249 249 249 251 252 252 252 250 251 251 251 255 257 259 260 262 262 263 263 261 259 260 260 261 262 263 264 267 268 266 265 266 265 266 267 263 262 261 259 259 262 264 265 264
247 247 249 251 250 251 253 252 252 253 253 254 256 257 259 264 262 261 262 262 261 260 260 261 260 262 264 264 266 266 266 266 264 264 265 265 264 263 260 258 260 263 264 265
246 246 248 250 251 253 252 252 252 251 251 254 255 255 258 263 262 262 262 262 262 262 261 261 261 262 263 263 264 266 266 265 265 264 265 266 265 263 262 261 262 262 263 267
247 248 248 249 250 254 253 253 252 251 253 253 254 254 257 260 261 260 260 260 262 262 260 261 262 263 262 262 263 265 265 265 266 265 264 264 264 264 261 261 260 262 264 267
248 248 247 248 249 250 250 250 250 250 251 252 253 253 253 256 259 258 260 260 260 260 260 259 259 260 260 261 262 263 263 263 264 264 264 264 263 261 260 261 261 263 266 268
247 247 246 246 248 247 247 248 249 247 247 248 250 252 253 256 257 256 258 260 259 257 256 257 258 258 258 258 259 260 261 261 262 264 265 266 264 261 261 260 261 262 266 270
243 243 242 242 244 245 246 247 248 247 249 248 249 250 253 255 257 256 257 259 258 256 254 257 258 258 258 258 259 261 261 264 264 263 265 267 266 262 261 262 263 264 266 268
245 243 243 244 244 242 242 245 246 248 249 249 247 248 250 253 255 254 256 256 254 255 257 256 255 255 257 256 257 261 262 261 261 261 265 268 269 270 268 267 266 267 268 269
245 245 245 245 243 240 240 244 247 247 246 249 248 247 249 251 253 254 254 253 255 256 256 257 257 256 255 255 258 262 264 265 265 262 265 267 270 272 273 274 273 272 272 272
245 245 245 245 242 242 243 245 249 250 250 250 249 250 253 253 253 253 254 254 255 253 253 256 257 257 257 258 260 262 266 267 267 267 267 268 270 272 273 273 274 274 274 273
Height
5836 5838 5839 5841 5843 5845 5846 5847 5848 5848 5848 5848 5848 5849 5850 5850 5850 5850 5851 5851 5852 5852 5852 5852 5853 5853 5853 5852 5852 5852 5851 5850 5849 5849 5848 5847 5847 5846 5845 5845 5845 5846 5846 5845
5831 5833 5835 5836 5837 5839 5840 5841 5843 5844 5843 5843 5844 5845 5846 5845 5845 5846 5847 5847 5848 5848 5848 5849 5849 5849 5849 5849 5848 5848 5847 5847 5846 5845 5845 5844 5843 5842 5842 5842 5842 5843 5842 5842
5827 5829 5829 5830 5832 5833 5835 5836 5837 5838 5839 5838 5839 5840 5841 5841 5840 5841 5842 5843 5844 5844 5844 5845 5845 5845 5845 5845 5845 5844 5843 5843 5842 5842 5841 5840 5839 5839 5839 5839 5839 5838 5838 5838
5821 5823 5824 5825 5826 5828 5829 5831 5832 5833 5834 5835 5835 5836 5836 5836 5836 5836 5837 5838 5839 5840 5840 5841 5841 5841 5841 5841 5840 5840 5839 5839 5838 5838 5838 5837 5836 5836 5836 5835 5835 5834 5834 5834
5816 5817 5818 5820 5822 5823 5825 5826 5827 5827 5828 5830 5830 5831 5833 5831 5831 5832 5833 5833 5835 5835 5836 5836 5836 5836 5836 5836 5836 5835 5835 5834 5834 5834 5834 5833 5833 5832 5832 5831 5830 5830 5830 5830
5810 5812 5813 5815 5816 5817 5819 5820 5821 5822 5823 5824 5826 5827 5827 5826 5826 5827 5828 5828 5829 5830 5831 5831 5832 5832 5831 5831 5831 5831 5831 5830 5830 5830 5830 5829 5828 5828 5827 5826 5826 5826 5826 5826
5805 5806 5807 5809 5810 5812 5813 5816 5817 5818 5818 5820 5820 5821 5822 5822 5821 5822 5823 5824 5824 5825 5826 5827 5827 5827 5827 5826 5826 5826 5826 5826 5826 5825 5825 5825 5824 5823 5823 5822 5822 5822 5822 5822
5800 5802 5802 5803 5805 5806 5807 5810 5813 5814 5816 5817 5815 5815 5817 5816 5817 5817 5818 5819 5819 5820 5821 5821 5821 5822 5822 5822 5822 5822 5821 5821 5821 5821 5820 5820 5819 5818 5818 5818 5818 5818 5817 5817
5794 5796 5797 5797 5798 5800 5801 5803 5807 5808 5810 5811 5812 5811 5811 5811 5812 5813 5813 5814 5814 5815 5816 5816 5816 5817 5817 5817 5817 5817 5816 5816 5816 5815 5815 5814 5814 5814 5813 5813 5813 5813 5813 5813
5788 5790 5791 5792 5793 5794 5797 5799 5800 5802 5804 5805 5807 5807 5807 5806 5807 5808 5808 5809 5809 5810 5810 5811 5811 5812 5812 5812 5812 5811 5811 5811 5811 5810 5809 5809 5809 5809 5809 5809 5809 5809 5809 5809
5782 5784 5786 5787 5788 5790 5791 5793 5795 5797 5799 5800 5802 5804 5802 5801 5801 5802 5803 5803 5804 5804 5805 5806 5806 5806 5806 5806 5806 5806 5806 5806 5806 5805 5805 5804 5804 5803 5804 5804 5804 5804 5804 5804
5776 5778 5780 5782 5783 5784 5785 5787 5789 5792 5793 5794 5795 5799 5796 5796 5796 5797 5797 5798 5798 5799 5799 5800 5800 5800 5800 5800 5800 5800 5800 5800 5800 5800 5799 5799 5798 5798 5798 5799 5799 5799 5800 5800
5769 5771 5774 5776 5778 5778 5779 5781 5783 5785 5787 5787 5789 5793 5790 5790 5790 5791 5791 5792 5792 5793 5793 5793 5794 5794 5794 5794 5794 5794 5794 5794 5794 5794 5794 5794 5793 5793 5793 5794 5794 5794 5794 5794
5763 5765 5769 5772 5773 5773 5773 5775 5777 5778 5780 5781 5783 5785 5785 5784 5784 5785 5785 5786 5786 5787 5787 5787 5787 5788 5788 5788 5788 5788 5788 5788 5788 5788 5788 5788 5788 5788 5788 5788 5789 5789 5789 5789
5756 5758 5760 5763 5764 5766 5767 5769 5770 5772 5773 5775 5776 5777 5778 5778 5778 5779 5780 5780 5781 5781 5781 5781 5781 5782 5782 5782 5782 5782 5782 5782 5783 5783 5783 5782 5783 5783 5783 5783 5783 5783 5783 5783
5748 5751 5753 5755 5757 5758 5760 5762 5764 5765 5767 5768 5769 5770 5771 5771 5772 5773 5773 5774 5774 5774 5775 5775 5775 5776 5776 5776 5776 5776 5776 5777 5777 5777 5777 5777 5777 5777 5777 5777 5778 5778 5778 5778
5742 5744 5747 5748 5750 5751 5753 5755 5757 5758 5760 5762 5762 5764 5764 5765 5766 5766 5767 5767 5768 5768 5769 5769 5769 5770 5771 5771 5771 5771 5771 5771 5771 5771 5771 5771 5771 5771 5771 5771 5772 5772 5772 5772
5735 5737 5739 5741 5744 5744 5748 5748 5750 5751 5753 5754 5755 5757 5758 5759 5759 5760 5760 5761 5761 5762 5763 5763 5763 5764 5765 5765 5765 5766 5766 5766 5766 5766 5766 5765 5765 5765 5765 5766 5766 5766 5766 5766
5728 5730 5732 5734 5735 5737 5739 5741 5743 5744 5745 5747 5748 5750 5751 5752 5753 5753 5754 5754 5755 5756 5756 5757 5757 5758 5758 5759 5759 5759 5759 5759 5759 5759 5759 5759 5759 5759 5759 5760 5760 5760 5760 5759
5721 5722 5725 5727 5728 5730 5733 5734 5735 5738 5739 5740 5741 5743 5744 5745 5746 5747 5747 5748 5749 5749 5750 5750 5751 5751 5752 5752 5753 5753 5753 5753 5753 5753 5753 5753 5754 5753 5753 5753 5754 5754 5754 5753
5713 5715 5716 5719 5721 5722 5725 5727 5729 5732 5733 5734 5735 5736 5738 5739 5740 5741 5741 5741 5742 5743 5743 5744 5744 5745 5745 5746 5746 5747 5747 5747 5747 5747 5747 5747 5747 5747 5747 5747 5747 5748 5747 5747
5707 5708 5710 5712 5714 5718 5718 5720 5722 5724 5725 5726 5728 5730 5731 5732 5733 5734 5734 5735 5736 5736 5737 5738 5738 5739 5739 5740 5740 5741 5741 5741 5741 5741 5741 5741 5741 5741 5741 5741 5741 5741 5741 5741
5700 5702 5703 5706 5709 5710 5711 5713 5714 5716 5718 5719 5721 5723 5724 5726 5726 5727 5728 5728 5729 5730 5731 5731 5732 5733 5733 5734 5735 5735 5735 5735 5735 5736 5736 5736 5735 5735 5735 5735 5735 5735 5734 5734
5694 5695 5697 5699 5700 5702 5704 5706 5707 5709 5711 5713 5714 5716 5718 5719 5720 5720 5721 5722 5722 5723 5724 5725 5726 5727 5727 5728 5729 5729 5729 5730 5730 5730 5730 5730 5730 5730 5729 5729 5728 5728 5728 5728
5687 5689 5690 5692 5694 5696 5697 5699 5701 5702 5704 5706 5708 5709 5711 5712 5713 5713 5714 5715 5716 5717 5718 5719 5720 5721 5722 5722 5723 5724 5724 5724 5724 5724 5724 5724 5724 5724 5723 5723 5722 5722 5722 5721
5681 5683 5684 5686 5687 5689 5691 5693 5694 5696 5698 5700 5701 5703 5704 5705 5706 5707 5708 5709 5710 5711 5712 5713 5714 5715 5716 5717 5717 5718 5718 5718 5718 5718 5718 5717 5717 5717 5717 5717 5716 5715 5715 5715